This is the latest recevied weather packets stored in our database for station/object KU9TRY. If no packets are shown the sender has not sent any weather packets the latest 10 day(s).
| Time | Temp. | Humidity | Pressure | Rain* | Wind** | Luminosity | Snow |
|---|---|---|---|---|---|---|---|
| 1777757612 | 17.22° C | 35% | 1015.2 hPa | 0 mm | - | 105 W/m² | - |
| 1777757311 | 17.22° C | 38% | 1015.2 hPa | 0 mm | - | 127 W/m² | - |
| 1777757009 | 16.67° C | 37% | 1015 hPa | 0 mm | - | 121 W/m² | - |
| 1777756099 | 17.22° C | 43% | 1015.2 hPa | 0 mm | - | 88 W/m² | - |
| 1777754281 | 16.67° C | 37% | 1015.5 hPa | 0 mm | - | 96 W/m² | - |
| 1777753074 | 17.22° C | 38% | 1016 hPa | 0 mm | - | 120 W/m² | - |
| 1777752775 | 17.22° C | 36% | 1015.9 hPa | 0 mm | - | 107 W/m² | - |
| 1777751866 | 17.22° C | 35% | 1016.3 hPa | 0 mm | - | 86 W/m² | - |
| 1777750049 | 16.67° C | 38% | 1016.6 hPa | 0 mm | - | 142 W/m² | - |
| 1777747628 | 17.22° C | 35% | 1016.4 hPa | 0 mm | - | 172 W/m² | - |
| 1777747021 | 17.22° C | 34% | 1016.6 hPa | 0 mm | - | 203 W/m² | - |
| 1777746717 | 17.22° C | 34% | 1016.5 hPa | 0 mm | - | 161 W/m² | - |
| 1777746412 | 17.22° C | 35% | 1016.3 hPa | 0 mm | - | 139 W/m² | - |
| 1777745806 | 17.22° C | 36% | 1016.3 hPa | 0 mm | - | 173 W/m² | - |
| 1777742171 | 17.78° C | 36% | 1017.1 hPa | 0 mm | - | 192 W/m² | - |
| 1777741868 | 18.33° C | 35% | 1017 hPa | 0 mm | - | 1066 W/m² | - |
| 1777741565 | 17.78° C | 36% | 1017.1 hPa | 0 mm | - | 999 W/m² | - |
| 1777740352 | 17.22° C | 32% | 1017.4 hPa | 0 mm | - | 979 W/m² | - |
| 1777740049 | 17.22° C | 35% | 1017.4 hPa | 0 mm | - | 970 W/m² | - |
| 1777739745 | 17.22° C | 32% | 1017.2 hPa | 0 mm | - | 969 W/m² | - |
| 1777739442 | 17.22° C | 32% | 1017.4 hPa | 0 mm | - | 958 W/m² | - |
| 1777739139 | 17.22° C | 35% | 1017.5 hPa | 0 mm | - | 963 W/m² | - |
| 1777738836 | 16.67° C | 38% | 1017.7 hPa | 0 mm | - | 954 W/m² | - |
| 1777738532 | 16.67° C | 36% | 1017.7 hPa | 0 mm | - | 957 W/m² | - |
| 1777738230 | 16.67° C | 38% | 1017.6 hPa | 0 mm | - | 944 W/m² | - |
* Rain latest hour (hover to see other rain measurements)
** Current wind speed in m/s (hover to see current wind gust speed)